| time (UTC) | temp F | wind direction | speed MPH | gust MPH | rain 1hr in | rain 24hr in | rain mn in | humidity % | barometer mb |
| 20260506215355 | 71 | 0 | 0.0 | 0.0 | 0.00 | 0.05 | 0.05 | 83 | 1007.0 |
| 20260506214852 | 71 | 0 | 0.0 | 0.0 | 0.00 | 0.05 | 0.05 | 82 | 1007.0 |
| 20260506214353 | 71 | 0 | 0.0 | 2.0 | 0.00 | 0.05 | 0.05 | 83 | 1007.0 |
| 20260506213854 | 71 | 0 | 0.0 | 2.0 | 0.00 | 0.05 | 0.05 | 83 | 1006.9 |
| 20260506213330 | 71 | 0 | 0.0 | 0.0 | 0.00 | 0.05 | 0.05 | 83 | 1006.9 |
| 20260506212830 | 71 | 0 | 0.0 | 0.0 | 0.00 | 0.05 | 0.05 | 82 | 1006.9 |
| 20260506212331 | 71 | 0 | 0.0 | 0.0 | 0.00 | 0.05 | 0.05 | 82 | 1006.6 |
| 20260506211429 | 70 | 0 | 0.0 | 0.0 | 0.00 | 0.05 | 0.05 | 82 | 1006.6 |
| 20260506210929 | 70 | 0 | 0.0 | 0.0 | 0.00 | 0.05 | 0.05 | 83 | 1006.8 |
| 20260506210430 | 70 | 0 | 0.0 | 0.0 | 0.00 | 0.05 | 0.05 | 83 | 1006.8 |
| 20260506205929 | 70 | 0 | 0.0 | 0.0 | 0.00 | 0.05 | 0.05 | 82 | 1006.8 |
| 20260506205512 | 70 | 0 | 0.0 | 0.0 | 0.00 | 0.05 | 0.05 | 82 | 1007.3 |
| 20260506205429 | 70 | 0 | 0.0 | 0.0 | 0.00 | 0.05 | 0.05 | 82 | 1007.3 |
| 20260506204930 | 70 | 0 | 0.0 | 0.0 | 0.00 | 0.05 | 0.05 | 83 | 1007.3 |
| 20260506204429 | 70 | 0 | 0.0 | 0.0 | 0.00 | 0.05 | 0.05 | 82 | 1007.3 |
| 20260506203929 | 70 | 0 | 0.0 | 0.0 | 0.00 | 0.05 | 0.05 | 82 | 1007.3 |
| 20260506203430 | 70 | 0 | 0.0 | 1.0 | 0.00 | 0.05 | 0.05 | 83 | 1007.3 |
| 20260506202929 | 70 | 0 | 0.0 | 1.0 | 0.00 | 0.05 | 0.05 | 84 | 1007.3 |
| 20260506202429 | 70 | 0 | 0.0 | 1.0 | 0.00 | 0.05 | 0.05 | 83 | 1007.4 |
| 20260506201929 | 70 | 0 | 0.0 | 1.0 | 0.00 | 0.05 | 0.05 | 85 | 1007.4 |
| 20260506201431 | 70 | 0 | 0.0 | 1.0 | 0.00 | 0.05 | 0.05 | 84 | 1007.4 |
| 20260506200929 | 70 | 0 | 0.0 | 1.0 | 0.00 | 0.05 | 0.05 | 85 | 1007.4 |
| 20260506200429 | 70 | 0 | 0.0 | 1.0 | 0.00 | 0.05 | 0.05 | 83 | 1007.4 |
| 20260506195929 | 70 | 0 | 0.0 | 1.0 | 0.00 | 0.05 | 0.05 | 84 | 1007.4 |
| 20260506195430 | 69 | 0 | 0.0 | 0.0 | 0.00 | 0.05 | 0.05 | 85 | 1007.0 |
| 20260506194932 | 69 | 0 | 0.0 | 0.0 | 0.00 | 0.05 | 0.05 | 87 | 1007.0 |
| 20260506194429 | 68 | 0 | 0.0 | 0.0 | 0.00 | 0.05 | 0.05 | 85 | 1007.0 |
| 20260506193932 | 68 | 0 | 0.0 | 2.0 | 0.00 | 0.05 | 0.05 | 85 | 1007.5 |
| 20260506193429 | 68 | 0 | 0.0 | 2.0 | 0.00 | 0.05 | 0.05 | 87 | 1007.5 |
| 20260506192929 | 67 | 0 | 0.0 | 0.0 | 0.00 | 0.05 | 0.05 | 88 | 1007.5 |
| 20260506192430 | 67 | 0 | 0.0 | 0.0 | 0.00 | 0.05 | 0.05 | 88 | 1007.4 |
| 20260506191929 | 67 | 0 | 0.0 | 0.0 | 0.00 | 0.05 | 0.05 | 89 | 1007.4 |
| 20260506191429 | 66 | 0 | 0.0 | 0.0 | 0.00 | 0.05 | 0.05 | 89 | 1007.4 |
| 20260506190930 | 66 | 0 | 0.0 | 0.0 | 0.00 | 0.05 | 0.05 | 90 | 1007.5 |
| 20260506190244 | 66 | 0 | 0.0 | 0.0 | 0.00 | 0.05 | 0.05 | 90 | 1007.5 |
| 20260506185731 | 66 | 0 | 0.0 | 1.0 | 0.00 | 0.05 | 0.05 | 91 | 1007.5 |
| 20260506185231 | 65 | 0 | 0.0 | 1.0 | 0.00 | 0.05 | 0.05 | 92 | 1007.5 |
| 20260506184731 | 65 | 0 | 0.0 | 0.0 | 0.00 | 0.05 | 0.05 | 91 | 1007.5 |
| 20260506184231 | 65 | 0 | 0.0 | 0.0 | 0.01 | 0.05 | 0.05 | 92 | 1007.5 |
| 20260506183730 | 65 | 0 | 0.0 | 0.0 | 0.01 | 0.05 | 0.05 | 92 | 1007.5 |
| 20260506183239 | 65 | 0 | 0.0 | 1.0 | 0.01 | 0.05 | 0.05 | 91 | 1007.5 |
| 20260506182731 | 65 | 0 | 0.0 | 1.0 | 0.01 | 0.05 | 0.05 | 91 | 1007.5 |
| 20260506182230 | 65 | 0 | 0.0 | 0.0 | 0.01 | 0.05 | 0.05 | 91 | 1007.3 |
| 20260506181736 | 64 | 0 | 0.0 | 0.0 | 0.02 | 0.05 | 0.05 | 92 | 1007.3 |
| 20260506181009 | 64 | 0 | 0.0 | 0.0 | 0.03 | 0.05 | 0.05 | 92 | 1007.3 |
| 20260506180509 | 64 | 0 | 0.0 | 0.0 | 0.04 | 0.05 | 0.05 | 92 | 1007.6 |
| 20260506180008 | 64 | 0 | 0.0 | 0.0 | 0.05 | 0.05 | 0.05 | 93 | 1007.6 |
| 20260506175508 | 64 | 0 | 0.0 | 0.0 | 0.05 | 0.05 | 0.05 | 93 | 1007.6 |
| 20260506175009 | 64 | 0 | 0.0 | 0.0 | 0.05 | 0.05 | 0.05 | 92 | 1009.0 |
| 20260506174515 | 63 | 0 | 0.0 | 0.0 | 0.04 | 0.04 | 0.04 | 91 | 1009.0 |
| 20260506174015 | 63 | 0 | 0.0 | 0.0 | 0.04 | 0.04 | 0.04 | 91 | 1009.0 |
| 20260506173510 | 64 | 0 | 0.0 | 0.0 | 0.04 | 0.04 | 0.04 | 91 | 1009.0 |
| 20260506173013 | 64 | 0 | 0.0 | 0.0 | 0.04 | 0.04 | 0.04 | 90 | 1009.0 |
| 20260506172511 | 64 | 0 | 0.0 | 1.0 | 0.04 | 0.04 | 0.04 | 88 | 1009.0 |
| 20260506172012 | 65 | 0 | 0.0 | 1.0 | 0.03 | 0.03 | 0.03 | 86 | 1009.4 |
| 20260506171511 | 66 | 0 | 0.0 | 0.0 | 0.03 | 0.03 | 0.03 | 85 | 1009.4 |
| 20260506171012 | 66 | 0 | 0.0 | 0.0 | 0.02 | 0.02 | 0.02 | 83 | 1009.4 |
| 20260506170515 | 67 | 0 | 0.0 | 0.0 | 0.01 | 0.01 | 0.01 | 80 | 1009.5 |
| 20260506170010 | 68 | 0 | 0.0 | 0.0 | 0.00 | 0.00 | 0.00 | 78 | 1009.5 |
| 20260506165510 | 68 | 0 | 0.0 | 0.0 | 0.00 | 0.00 | 0.00 | 76 | 1009.5 |
| 20260506165011 | 68 | 0 | 0.0 | 0.0 | 0.00 | 0.00 | 0.00 | 76 | 1009.2 |
| 20260506164510 | 69 | 0 | 0.0 | 0.0 | 0.00 | 0.00 | 0.00 | 75 | 1009.2 |
| 20260506164010 | 69 | 0 | 0.0 | 0.0 | 0.00 | 0.00 | 0.00 | 74 | 1009.2 |
| 20260506163516 | 69 | 0 | 0.0 | 0.0 | 0.00 | 0.00 | 0.00 | 74 | 1009.1 |
| 20260506163014 | 69 | 0 | 0.0 | 0.0 | 0.00 | 0.00 | 0.00 | 74 | 1009.1 |
| 20260506162523 | 69 | 0 | 0.0 | 0.0 | 0.00 | 0.00 | 0.00 | 73 | 1009.1 |
| 20260506162010 | 69 | 0 | 0.0 | 0.0 | 0.00 | 0.00 | 0.00 | 74 | 1008.9 |
| 20260506161511 | 69 | 0 | 0.0 | 0.0 | 0.00 | 0.00 | 0.00 | 73 | 1008.9 |
| 20260506161010 | 69 | 0 | 0.0 | 0.0 | 0.00 | 0.00 | 0.00 | 72 | 1008.9 |
| 20260506160513 | 69 | 0 | 0.0 | 0.0 | 0.00 | 0.00 | 0.00 | 72 | 1009.0 |
| 20260506160012 | 69 | 0 | 0.0 | 0.0 | 0.00 | 0.00 | 0.00 | 71 | 1009.0 |
| 20260506155523 | 69 | 0 | 0.0 | 0.0 | 0.00 | 0.00 | 0.00 | 72 | 1009.0 |
| 20260506155010 | 68 | 0 | 0.0 | 0.0 | 0.00 | 0.00 | 0.00 | 73 | 1008.5 |
| 20260506154511 | 68 | 0 | 0.0 | 0.0 | 0.00 | 0.00 | 0.00 | 75 | 1008.5 |
| 20260506154008 | 68 | 0 | 0.0 | 0.0 | 0.00 | 0.00 | 0.00 | 77 | 1008.5 |
| 20260506153508 | 67 | 0 | 0.0 | 0.0 | 0.00 | 0.00 | 0.00 | 75 | 1008.0 |
| 20260506152810 | 67 | 0 | 0.0 | 0.0 | 0.00 | 0.00 | 0.00 | 76 | 1008.0 |
| 20260506152309 | 67 | 0 | 0.0 | 0.0 | 0.00 | 0.00 | 0.00 | 77 | 1008.0 |
| 20260506151810 | 66 | 0 | 0.0 | 0.0 | 0.00 | 0.00 | 0.00 | 77 | 1008.0 |
| 20260506151310 | 66 | 0 | 0.0 | 0.0 | 0.00 | 0.00 | 0.00 | 78 | 1008.0 |
| 20260506150810 | 66 | 0 | 0.0 | 0.0 | 0.00 | 0.00 | 0.00 | 78 | 1008.2 |
| 20260506150316 | 66 | 0 | 0.0 | 0.0 | 0.00 | 0.00 | 0.00 | 78 | 1008.2 |
| 20260506145809 | 65 | 0 | 0.0 | 0.0 | 0.00 | 0.00 | 0.00 | 79 | 1008.2 |
| 20260506145312 | 65 | 0 | 0.0 | 1.0 | 0.00 | 0.00 | 0.00 | 79 | 1008.4 |
| 20260506144814 | 65 | 0 | 0.0 | 1.0 | 0.00 | 0.00 | 0.00 | 80 | 1008.4 |
| 20260506144309 | 65 | 0 | 0.0 | 0.0 | 0.00 | 0.00 | 0.00 | 80 | 1008.4 |
| 20260506143510 | 64 | 0 | 0.0 | 0.0 | 0.00 | 0.00 | 0.00 | 79 | 1008.5 |
| 20260506143009 | 64 | 0 | 0.0 | 0.0 | 0.00 | 0.00 | 0.00 | 80 | 1008.5 |
| 20260506142509 | 64 | 0 | 0.0 | 0.0 | 0.00 | 0.00 | 0.00 | 79 | 1008.5 |
| 20260506142009 | 64 | 0 | 0.0 | 0.0 | 0.00 | 0.00 | 0.00 | 80 | 1008.5 |
| 20260506141512 | 64 | 0 | 0.0 | 0.0 | 0.00 | 0.00 | 0.00 | 79 | 1008.5 |
| 20260506141009 | 64 | 0 | 0.0 | 0.0 | 0.00 | 0.00 | 0.00 | 79 | 1008.5 |
| 20260506140516 | 64 | 0 | 0.0 | 0.0 | 0.00 | 0.00 | 0.00 | 80 | 1008.4 |
| 20260506140009 | 64 | 0 | 0.0 | 0.0 | 0.00 | 0.00 | 0.00 | 80 | 1008.4 |
| 20260506135509 | 64 | 0 | 0.0 | 0.0 | 0.00 | 0.00 | 0.00 | 80 | 1008.4 |
| 20260506135009 | 63 | 0 | 0.0 | 0.0 | 0.00 | 0.00 | 0.00 | 80 | 1008.0 |
| 20260506134509 | 63 | 0 | 0.0 | 0.0 | 0.00 | 0.00 | 0.00 | 80 | 1008.0 |
| 20260506134016 | 63 | 0 | 0.0 | 0.0 | 0.00 | 0.00 | 0.00 | 80 | 1008.0 |
| 20260506133509 | 63 | 0 | 0.0 | 1.0 | 0.00 | 0.00 | 0.00 | 80 | 1008.3 |
| 20260506133011 | 63 | 0 | 0.0 | 1.0 | 0.00 | 0.00 | 0.00 | 80 | 1008.3 |
| 20260506132009 | 63 | 0 | 0.0 | 1.0 | 0.00 | 0.00 | 0.00 | 80 | 1008.4 |
| 20260506131509 | 63 | 0 | 0.0 | 1.0 | 0.00 | 0.00 | 0.00 | 79 | 1008.4 |
| 20260506131009 | 63 | 0 | 0.0 | 1.0 | 0.00 | 0.00 | 0.00 | 80 | 1008.4 |
| 20260506130512 | 63 | 0 | 0.0 | 0.0 | 0.00 | 0.00 | 0.00 | 80 | 1007.8 |
| 20260506130009 | 63 | 0 | 0.0 | 0.0 | 0.00 | 0.00 | 0.00 | 79 | 1007.8 |
| 20260506125509 | 63 | 0 | 0.0 | 0.0 | 0.00 | 0.00 | 0.00 | 79 | 1007.8 |
| 20260506125009 | 63 | 0 | 0.0 | 0.0 | 0.00 | 0.00 | 0.00 | 79 | 1008.4 |
| 20260506124512 | 62 | 0 | 0.0 | 0.0 | 0.00 | 0.00 | 0.00 | 80 | 1008.4 |
| 20260506124019 | 62 | 0 | 0.0 | 0.0 | 0.00 | 0.00 | 0.00 | 80 | 1008.4 |
| 20260506123509 | 62 | 0 | 0.0 | 0.0 | 0.00 | 0.00 | 0.00 | 80 | 1008.7 |
| 20260506123009 | 62 | 0 | 0.0 | 0.0 | 0.00 | 0.00 | 0.00 | 80 | 1008.7 |
| 20260506122336 | 62 | 0 | 0.0 | 0.0 | 0.00 | 0.00 | 0.00 | 80 | 1008.9 |
| 20260506121831 | 62 | 0 | 0.0 | 2.0 | 0.00 | 0.00 | 0.00 | 80 | 1008.9 |
| 20260506121331 | 62 | 0 | 0.0 | 2.0 | 0.00 | 0.00 | 0.00 | 79 | 1008.9 |
| 20260506120829 | 62 | 0 | 0.0 | 0.0 | 0.00 | 0.00 | 0.00 | 79 | 1008.7 |
| 20260506120326 | 62 | 0 | 0.0 | 0.0 | 0.00 | 0.00 | 0.00 | 79 | 1008.7 |
| 20260506115827 | 62 | 0 | 0.0 | 0.0 | 0.00 | 0.00 | 0.00 | 79 | 1008.7 |
| 20260506115327 | 62 | 0 | 0.0 | 0.0 | 0.00 | 0.00 | 0.00 | 79 | 1008.5 |
| 20260506114826 | 62 | 0 | 0.0 | 0.0 | 0.00 | 0.00 | 0.00 | 79 | 1008.5 |
| 20260506113856 | 61 | 0 | 0.0 | 0.0 | 0.00 | 0.00 | 0.00 | 79 | 1008.6 |
| 20260506113356 | 61 | 0 | 0.0 | 0.0 | 0.00 | 0.00 | 0.00 | 79 | 1008.6 |
| 20260506112856 | 61 | 0 | 0.0 | 0.0 | 0.00 | 0.00 | 0.00 | 79 | 1008.6 |
| 20260506112356 | 61 | 0 | 0.0 | 0.0 | 0.00 | 0.00 | 0.00 | 79 | 1008.3 |
| 20260506111856 | 61 | 0 | 0.0 | 0.0 | 0.00 | 0.00 | 0.00 | 79 | 1008.3 |
| 20260506111356 | 61 | 0 | 0.0 | 0.0 | 0.00 | 0.00 | 0.00 | 79 | 1008.3 |
| 20260506110856 | 61 | 0 | 0.0 | 0.0 | 0.00 | 0.00 | 0.00 | 79 | 1008.0 |
| 20260506110515 | 61 | 0 | 0.0 | 1.0 | 0.00 | 0.00 | 0.00 | 79 | 1008.0 |
| 20260506110356 | 61 | 0 | 0.0 | 1.0 | 0.00 | 0.00 | 0.00 | 79 | 1008.0 |
| 20260506110020 | 61 | 0 | 0.0 | 1.0 | 0.00 | 0.00 | 0.00 | 79 | 1008.0 |
| 20260506105856 | 61 | 0 | 0.0 | 1.0 | 0.00 | 0.00 | 0.00 | 79 | 1008.0 |
| 20260506105509 | 61 | 0 | 0.0 | 0.0 | 0.00 | 0.00 | 0.00 | 79 | 1007.6 |
| 20260506105356 | 61 | 0 | 0.0 | 0.0 | 0.00 | 0.00 | 0.00 | 79 | 1007.6 |
| 20260506105112 | 61 | 0 | 0.0 | 0.0 | 0.00 | 0.00 | 0.00 | 79 | 1007.6 |
| 20260506104856 | 61 | 0 | 0.0 | 0.0 | 0.00 | 0.00 | 0.00 | 79 | 1007.6 |
| 20260506104356 | 61 | 0 | 0.0 | 0.0 | 0.00 | 0.00 | 0.00 | 79 | 1007.6 |
| 20260506104035 | 61 | 0 | 0.0 | 0.0 | 0.00 | 0.00 | 0.00 | 79 | 1007.4 |
| 20260506103856 | 61 | 0 | 0.0 | 0.0 | 0.00 | 0.00 | 0.00 | 79 | 1007.4 |
| 20260506103442 | 61 | 0 | 0.0 | 0.0 | 0.00 | 0.00 | 0.00 | 79 | 1007.4 |
| 20260506103358 | 61 | 0 | 0.0 | 0.0 | 0.00 | 0.00 | 0.00 | 79 | 1007.4 |
| 20260506102934 | 61 | 0 | 0.0 | 0.0 | 0.00 | 0.00 | 0.00 | 79 | 1007.4 |
| 20260506102858 | 61 | 0 | 0.0 | 0.0 | 0.00 | 0.00 | 0.00 | 79 | 1007.4 |
| 20260506102507 | 61 | 0 | 0.0 | 0.0 | 0.00 | 0.00 | 0.00 | 78 | 1007.5 |
| 20260506102356 | 61 | 0 | 0.0 | 0.0 | 0.00 | 0.00 | 0.00 | 78 | 1007.5 |
| 20260506101856 | 61 | 0 | 0.0 | 0.0 | 0.00 | 0.00 | 0.00 | 79 | 1007.5 |
| 20260506101356 | 61 | 0 | 0.0 | 0.0 | 0.00 | 0.00 | 0.00 | 79 | 1007.5 |
| 20260506100856 | 61 | 0 | 0.0 | 0.0 | 0.00 | 0.00 | 0.00 | 78 | 1007.6 |
| 20260506100356 | 61 | 0 | 0.0 | 0.0 | 0.00 | 0.00 | 0.00 | 78 | 1007.6 |
| 20260506095856 | 61 | 0 | 0.0 | 0.0 | 0.00 | 0.00 | 0.00 | 78 | 1007.6 |
| 20260506095355 | 61 | 0 | 0.0 | 0.0 | 0.00 | 0.00 | 0.00 | 78 | 1007.6 |
| 20260506094856 | 61 | 0 | 0.0 | 0.0 | 0.00 | 0.00 | 0.00 | 77 | 1007.6 |
| 20260506094356 | 61 | 0 | 0.0 | 0.0 | 0.00 | 0.00 | 0.00 | 77 | 1007.6 |
| 20260506093856 | 61 | 0 | 0.0 | 0.0 | 0.00 | 0.00 | 0.00 | 77 | 1007.6 |
| 20260506093402 | 61 | 0 | 0.0 | 0.0 | 0.00 | 0.00 | 0.00 | 77 | 1007.6 |
| 20260506092855 | 62 | 0 | 0.0 | 1.0 | 0.00 | 0.00 | 0.00 | 77 | 1007.6 |
| 20260506092356 | 62 | 0 | 0.0 | 1.0 | 0.00 | 0.00 | 0.00 | 77 | 1007.8 |
| 20260506091858 | 62 | 0 | 0.0 | 0.0 | 0.00 | 0.00 | 0.00 | 77 | 1007.8 |
| 20260506091356 | 62 | 0 | 0.0 | 1.0 | 0.00 | 0.00 | 0.00 | 77 | 1007.8 |
| 20260506090857 | 62 | 0 | 0.0 | 1.0 | 0.00 | 0.00 | 0.00 | 76 | 1008.0 |
| 20260506090356 | 62 | 0 | 0.0 | 0.0 | 0.00 | 0.00 | 0.00 | 76 | 1008.0 |
| 20260506085856 | 62 | 0 | 0.0 | 0.0 | 0.00 | 0.00 | 0.00 | 76 | 1008.0 |
| 20260506085356 | 62 | 0 | 0.0 | 0.0 | 0.00 | 0.00 | 0.00 | 76 | 1008.3 |
| 20260506084855 | 62 | 0 | 0.0 | 0.0 | 0.00 | 0.00 | 0.00 | 76 | 1008.3 |
| 20260506084356 | 62 | 0 | 0.0 | 0.0 | 0.00 | 0.00 | 0.00 | 76 | 1008.3 |
| 20260506083856 | 62 | 0 | 0.0 | 1.0 | 0.00 | 0.00 | 0.00 | 75 | 1008.5 |
| 20260506083356 | 62 | 0 | 0.0 | 1.0 | 0.00 | 0.00 | 0.00 | 75 | 1008.5 |
| 20260506082856 | 62 | 0 | 0.0 | 0.0 | 0.00 | 0.00 | 0.00 | 75 | 1008.5 |
| 20260506082355 | 62 | 0 | 0.0 | 0.0 | 0.00 | 0.00 | 0.00 | 75 | 1008.5 |
| 20260506081856 | 63 | 0 | 0.0 | 1.0 | 0.00 | 0.00 | 0.00 | 75 | 1008.5 |
| 20260506081356 | 63 | 0 | 0.0 | 1.0 | 0.00 | 0.00 | 0.00 | 75 | 1008.5 |
| 20260506080855 | 63 | 0 | 0.0 | 1.0 | 0.00 | 0.00 | 0.00 | 75 | 1008.0 |
| 20260506080356 | 63 | 0 | 0.0 | 1.0 | 0.00 | 0.00 | 0.00 | 75 | 1008.0 |
| 20260506073503 | 63 | 0 | 0.0 | 1.0 | 0.00 | 0.00 | 0.00 | 75 | 1008.5 |
| 20260506073001 | 63 | 0 | 0.0 | 0.0 | 0.00 | 0.00 | 0.00 | 75 | 1008.5 |
| 20260506072500 | 63 | 0 | 0.0 | 1.0 | 0.00 | 0.00 | 0.00 | 75 | 1008.4 |
| 20260506072001 | 63 | 0 | 0.0 | 1.0 | 0.00 | 0.00 | 0.00 | 75 | 1008.4 |
| 20260506071500 | 63 | 0 | 0.0 | 0.0 | 0.00 | 0.00 | 0.00 | 75 | 1008.4 |
| 20260506071001 | 63 | 0 | 0.0 | 0.0 | 0.00 | 0.00 | 0.00 | 75 | 1007.8 |
| 20260506070503 | 63 | 0 | 0.0 | 0.0 | 0.00 | 0.00 | 0.00 | 75 | 1007.8 |
| 20260506062225 | 64 | 0 | 0.0 | 0.0 | 0.00 | 0.00 | 0.00 | 73 | 1008.6 |
| 20260506061329 | 64 | 0 | 0.0 | 0.0 | 0.00 | 0.00 | 0.00 | 72 | 1008.6 |
| 20260506060829 | 64 | 0 | 0.0 | 0.0 | 0.00 | 0.00 | 0.00 | 72 | 1008.9 |
| 20260506060329 | 64 | 0 | 0.0 | 0.0 | 0.00 | 0.00 | 0.00 | 72 | 1008.9 |
| 20260506051329 | 65 | 0 | 0.0 | 4.0 | 0.00 | 0.00 | 0.00 | 69 | 1008.8 |
| 20260506050832 | 65 | 0 | 0.0 | 4.0 | 0.00 | 0.00 | 0.00 | 69 | 1008.7 |
| 20260506050330 | 65 | 0 | 0.0 | 0.0 | 0.00 | 0.00 | 0.00 | 69 | 1008.7 |
| 20260506044504 | 66 | 0 | 0.0 | 1.0 | 0.00 | 0.00 | 0.00 | 67 | 1009.1 |
| 20260506044003 | 66 | 0 | 0.0 | 0.0 | 0.00 | 0.00 | 0.00 | 67 | 1009.1 |
| 20260506043505 | 66 | 0 | 0.0 | 0.0 | 0.00 | 0.00 | 0.00 | 67 | 1009.1 |
| 20260506043003 | 66 | 0 | 0.0 | 0.0 | 0.00 | 0.00 | 0.00 | 66 | 1009.1 |
| 20260506042502 | 66 | 0 | 0.0 | 4.0 | 0.00 | 0.00 | 0.00 | 66 | 1008.6 |
| 20260506042003 | 66 | 0 | 0.0 | 4.0 | 0.00 | 0.00 | 0.00 | 65 | 1008.6 |
| 20260506041503 | 66 | 0 | 0.0 | 2.0 | 0.00 | 0.00 | 0.00 | 65 | 1008.6 |
| 20260506041003 | 66 | 0 | 0.0 | 2.0 | 0.00 | 0.00 | 0.00 | 64 | 1008.8 |
| 20260506040503 | 66 | 0 | 0.0 | 1.0 | 0.00 | 0.00 | 0.00 | 64 | 1008.8 |
| 20260506040003 | 66 | 0 | 0.0 | 1.0 | 0.00 | 0.00 | 0.00 | 63 | 1008.8 |
| 20260506035503 | 66 | 0 | 0.0 | 2.0 | 0.00 | 0.00 | 0.00 | 62 | 1008.7 |
| 20260506035004 | 66 | 0 | 0.0 | 2.0 | 0.00 | 0.00 | 0.00 | 61 | 1008.7 |
| 20260506034503 | 66 | 0 | 0.0 | 1.0 | 0.00 | 0.00 | 0.00 | 60 | 1008.7 |
| 20260506034003 | 67 | 0 | 0.0 | 1.0 | 0.00 | 0.00 | 0.00 | 59 | 1008.6 |
| 20260506033503 | 67 | 0 | 0.0 | 1.0 | 0.00 | 0.00 | 0.00 | 59 | 1008.6 |
| 20260506033003 | 67 | 0 | 0.0 | 2.0 | 0.00 | 0.00 | 0.00 | 58 | 1008.6 |
| 20260506032503 | 67 | 0 | 0.0 | 2.0 | 0.00 | 0.00 | 0.00 | 58 | 1008.7 |
| 20260506032003 | 67 | 0 | 0.0 | 0.0 | 0.00 | 0.00 | 0.00 | 58 | 1008.7 |
| 20260506031503 | 67 | 0 | 0.0 | 0.0 | 0.00 | 0.00 | 0.00 | 57 | 1008.7 |
| 20260506031003 | 67 | 0 | 0.0 | 1.0 | 0.00 | 0.00 | 0.00 | 56 | 1008.7 |
| 20260506030504 | 67 | 0 | 0.0 | 1.0 | 0.00 | 0.00 | 0.00 | 56 | 1008.7 |
| 20260506030003 | 67 | 0 | 0.0 | 0.0 | 0.00 | 0.00 | 0.00 | 56 | 1008.7 |
| 20260506025504 | 67 | 0 | 0.0 | 0.0 | 0.00 | 0.00 | 0.00 | 55 | 1008.9 |
| 20260506025004 | 67 | 0 | 0.0 | 0.0 | 0.00 | 0.00 | 0.00 | 55 | 1008.9 |
| 20260506024503 | 68 | 0 | 0.0 | 0.0 | 0.00 | 0.00 | 0.00 | 54 | 1008.9 |
| 20260506024003 | 68 | 0 | 0.0 | 0.0 | 0.00 | 0.00 | 0.00 | 53 | 1009.2 |
| 20260506023503 | 68 | 0 | 0.0 | 0.0 | 0.00 | 0.00 | 0.00 | 52 | 1009.2 |
| 20260506023003 | 69 | 0 | 0.0 | 0.0 | 0.00 | 0.00 | 0.00 | 52 | 1009.2 |
| 20260506022503 | 69 | 0 | 0.0 | 0.0 | 0.00 | 0.00 | 0.00 | 51 | 1009.2 |
| 20260506022003 | 69 | 0 | 0.0 | 0.0 | 0.00 | 0.00 | 0.00 | 51 | 1009.2 |
| 20260506021503 | 69 | 0 | 0.0 | 0.0 | 0.00 | 0.00 | 0.00 | 51 | 1009.2 |
| 20260506021003 | 70 | 0 | 0.0 | 0.0 | 0.00 | 0.00 | 0.00 | 50 | 1009.2 |
| 20260506020346 | 70 | 0 | 0.0 | 0.0 | 0.00 | 0.00 | 0.00 | 50 | 1009.2 |
| 20260506015918 | 70 | 0 | 0.0 | 0.0 | 0.00 | 0.00 | 0.00 | 50 | 1009.2 |
| 20260506015846 | 70 | 0 | 0.0 | 0.0 | 0.00 | 0.00 | 0.00 | 50 | 1009.2 |
| 20260506015319 | 70 | 0 | 0.0 | 0.0 | 0.00 | 0.00 | 0.00 | 50 | 1009.1 |
| 20260506014820 | 70 | 0 | 0.0 | 0.0 | 0.00 | 0.00 | 0.00 | 50 | 1009.1 |
| 20260506014318 | 70 | 0 | 0.0 | 0.0 | 0.00 | 0.00 | 0.00 | 50 | 1009.1 |
| 20260506013817 | 70 | 0 | 0.0 | 0.0 | 0.00 | 0.00 | 0.00 | 50 | 1009.0 |
| 20260506013318 | 70 | 0 | 0.0 | 0.0 | 0.00 | 0.00 | 0.00 | 49 | 1009.0 |
| 20260506012827 | 70 | 0 | 0.0 | 0.0 | 0.00 | 0.00 | 0.00 | 49 | 1009.0 |
| 20260506012318 | 70 | 0 | 0.0 | 1.0 | 0.00 | 0.00 | 0.00 | 49 | 1009.1 |
| 20260506011818 | 70 | 0 | 0.0 | 1.0 | 0.00 | 0.00 | 0.00 | 49 | 1009.1 |
| 20260506011319 | 71 | 0 | 0.0 | 0.0 | 0.00 | 0.00 | 0.00 | 49 | 1009.1 |
| 20260506010818 | 71 | 0 | 0.0 | 0.0 | 0.00 | 0.00 | 0.00 | 48 | 1008.7 |
| 20260506010317 | 71 | 0 | 0.0 | 0.0 | 0.00 | 0.00 | 0.00 | 48 | 1008.7 |
| 20260506005829 | 71 | 0 | 0.0 | 0.0 | 0.00 | 0.00 | 0.00 | 48 | 1008.7 |
| 20260506005317 | 71 | 0 | 0.0 | 0.0 | 0.00 | 0.00 | 0.00 | 48 | 1008.6 |
| 20260506004818 | 71 | 0 | 0.0 | 0.0 | 0.00 | 0.00 | 0.00 | 48 | 1008.6 |
| 20260506004318 | 71 | 0 | 0.0 | 0.0 | 0.00 | 0.00 | 0.00 | 48 | 1008.6 |
| 20260506003818 | 72 | 0 | 0.0 | 0.0 | 0.00 | 0.00 | 0.00 | 48 | 1008.6 |
| 20260506003318 | 72 | 0 | 0.0 | 0.0 | 0.00 | 0.00 | 0.00 | 48 | 1008.6 |
| 20260506002828 | 72 | 0 | 0.0 | 0.0 | 0.00 | 0.00 | 0.00 | 47 | 1008.6 |
| 20260506002318 | 72 | 0 | 0.0 | 1.0 | 0.00 | 0.00 | 0.00 | 47 | 1008.5 |
| 20260506001817 | 72 | 0 | 0.0 | 1.0 | 0.00 | 0.00 | 0.00 | 46 | 1008.5 |
| 20260506001318 | 73 | 0 | 0.0 | 0.0 | 0.00 | 0.00 | 0.00 | 46 | 1008.5 |
| 20260506000817 | 73 | 0 | 0.0 | 0.0 | 0.00 | 0.00 | 0.00 | 46 | 1008.5 |
| 20260506000318 | 73 | 0 | 0.0 | 0.0 | 0.00 | 0.00 | 0.00 | 46 | 1008.5 |
| 20260505235828 | 73 | 0 | 0.0 | 0.0 | 0.00 | 0.00 | 0.00 | 45 | 1008.5 |
| 20260505235317 | 73 | 0 | 0.0 | 0.0 | 0.00 | 0.00 | 0.00 | 45 | 1008.4 |
| 20260505234509 | 74 | 0 | 0.0 | 1.0 | 0.00 | 0.00 | 0.00 | 44 | 1008.4 |
| 20260505234009 | 74 | 0 | 0.0 | 0.0 | 0.00 | 0.00 | 0.00 | 44 | 1008.4 |
| 20260505233509 | 74 | 0 | 0.0 | 0.0 | 0.00 | 0.00 | 0.00 | 44 | 1008.2 |
| 20260505233009 | 74 | 0 | 0.0 | 0.0 | 0.00 | 0.00 | 0.00 | 45 | 1008.2 |
| 20260505232510 | 74 | 0 | 0.0 | 0.0 | 0.00 | 0.00 | 0.00 | 45 | 1008.2 |
| 20260505232009 | 74 | 0 | 0.0 | 1.0 | 0.00 | 0.00 | 0.00 | 45 | 1008.1 |
| 20260505231509 | 74 | 0 | 0.0 | 1.0 | 0.00 | 0.00 | 0.00 | 46 | 1008.1 |
| 20260505231009 | 74 | 0 | 0.0 | 0.0 | 0.00 | 0.00 | 0.00 | 46 | 1008.1 |
| 20260505230509 | 74 | 0 | 0.0 | 0.0 | 0.00 | 0.00 | 0.00 | 46 | 1008.1 |
| 20260505230009 | 74 | 0 | 0.0 | 0.0 | 0.00 | 0.00 | 0.00 | 46 | 1008.1 |
| 20260505225509 | 75 | 0 | 0.0 | 0.0 | 0.00 | 0.00 | 0.00 | 45 | 1008.1 |
| 20260505225009 | 75 | 0 | 0.0 | 0.0 | 0.00 | 0.00 | 0.00 | 44 | 1008.1 |
| 20260505224509 | 75 | 0 | 0.0 | 0.0 | 0.00 | 0.00 | 0.00 | 44 | 1008.1 |
| 20260505224009 | 75 | 0 | 0.0 | 0.0 | 0.00 | 0.00 | 0.00 | 45 | 1008.1 |
| 20260505223509 | 75 | 0 | 0.0 | 0.0 | 0.00 | 0.00 | 0.00 | 43 | 1008.2 |
| 20260505223009 | 75 | 0 | 0.0 | 0.0 | 0.00 | 0.00 | 0.00 | 43 | 1008.2 |
| 20260505222509 | 75 | 0 | 0.0 | 0.0 | 0.00 | 0.00 | 0.00 | 43 | 1008.2 |
| 20260505221553 | 76 | 0 | 0.0 | 0.0 | 0.00 | 0.00 | 0.00 | 42 | 1008.5 |
| 20260505221036 | 76 | 0 | 0.0 | 3.0 | 0.00 | 0.00 | 0.00 | 41 | 1008.5 |
| 20260505220536 | 76 | 0 | 0.0 | 1.0 | 0.00 | 0.00 | 0.00 | 42 | 1008.4 |
| 20260505220036 | 76 | 0 | 0.0 | 1.0 | 0.00 | 0.00 | 0.00 | 42 | 1008.4 |